Location: Banff
(51.1667°N, 115.5667°W)
Time: 03:31:49
(UTC+00:00)

Explorer 7 - Pass Details

Date: 05 December 2020
Orbit: 484 x 678 km, 50.3° (Epoch: 16 January)

Event Time Altitude Azimuth Distance (km) Brightness Sun altitude
Exits shadow 13:11:19 20° 206° (SSW) 1,285 8.5 -20.7°
Drops below altitude 10° 13:13:48 10° 168° (SSE) 1,786 9.7 -20.3°
Sets 13:16:20 0° 152° (SSE) 2,638 10.9 -19.9°
